This demonstration page uses our WeatherBlox Daily Observations layout. Learn more.

Left ArrowRight Arrow

Hourly Observations for December 6, 2020

Temp ( °F °C ) Dew Point ( °F °C ) Humidity (%) Winds ( mph kmh ) Pressure ( in mb ) Visibility ( mi km ) Precip ( " mm )
12:52 am 00:52 Mostly Clear 32 0 26 -3.3 79 79 N 12 19 30.12 1020 10 16 0.00 0.00
1:52 am 01:52 Partly Cloudy 32 0 26 -3.3 79 79 N 12 19 30.13 1020 10 16 0.00 0.00
2:52 am 02:52 Mostly Clear 29 -1.7 25 -3.9 85 85 N 6 9 30.15 1021 10 16 0.00 0.00
3:52 am 03:52 Mostly Cloudy 27 -2.8 24 -4.4 89 89 NNE 6 9 30.16 1021 10 16 0.00 0.00
4:52 am 04:52 Mostly Cloudy 26 -3.3 24 -4.4 92 92 N 8 13 30.16 1021 10 16 0.00 0.00
5:52 am 05:52 Partly Cloudy 26 -3.3 23 -5 88 88 N 10 17 30.17 1022 10 16 0.00 0.00
6:52 am 06:52 Partly Cloudy 24 -4.4 22 -5.6 91 91 N 9 15 30.18 1022 10 16 0.00 0.00
7:52 am 07:52 Mostly Sunny 24 -4.4 22 -5.6 91 91 N 9 15 30.20 1023 10 16 0.00 0.00
8:00 am 08:00 Partly Cloudy 24 -4.4 22 -5.6 91 91 N 8 13 30.23 1024 10 16 0.00 0.00
8:23 am 08:23 Cloudy with Mist and Fog 27 -2.8 25 -3.9 92 92 N 7 11 30.23 1024 5 8 0.00 0.00
8:52 am 08:52 Cloudy with Mist and Fog 29 -1.7 28 -2.2 96 96 N 8 13 30.20 1023 4 6 0.00 0.00
9:52 am 09:52 Cloudy with Mist and Fog 32 0 30 -1.1 92 92 N 10 17 30.20 1023 4 6 0.00 0.00
10:52 am 10:52 Cloudy with Mist and Fog 34 1.1 31 -0.6 89 89 NNW 9 15 30.21 1023 5 8 0.00 0.00
11:52 am 11:52 Cloudy with Mist and Fog 35 1.7 32 0 89 89 NNW 10 17 30.19 1023 6 10 0.00 0.00
12:25 pm 12:25 Cloudy 36 2.2 31 -0.6 82 82 NNW 13 20 30.20 1023 7 11 0.00 0.00
12:52 pm 12:52 Cloudy 36 2.2 32 0 86 86 NNW 9 15 30.18 1022 8 13 0.00 0.00
1:52 pm 13:52 Cloudy 35 1.7 31 -0.6 85 85 NW 13 20 30.18 1022 10 16 0.00 0.00
2:03 pm 14:03 Cloudy 34 1.1 31 -0.6 89 89 NW 10 17 30.21 1023 10 16 0.00 0.00
2:52 pm 14:52 Cloudy 34 1.1 30 -1.1 85 85 NW 10 17 30.18 1022 7 11 0.00 0.00
3:52 pm 15:52 Cloudy 35 1.7 31 -0.6 85 85 NNW 8 13 30.19 1022 7 11 0.00 0.00
4:05 pm 16:05 Cloudy 35 1.7 31 -0.6 85 85 N 8 13 30.21 1023 10 16 0.00 0.00
4:52 pm 16:52 Cloudy 35 1.7 31 -0.6 85 85 NNW 6 9 30.20 1023 10 16 0.00 0.00
5:52 pm 17:52 Cloudy 35 1.7 31 -0.6 85 85 NW 5 7 30.19 1022 10 16 0.00 0.00
6:52 pm 18:52 Cloudy 35 1.7 31 -0.6 85 85 Calm 30.17 1022 10 16 0.00 0.00
7:52 pm 19:52 Mostly Cloudy 34 1.1 31 -0.6 89 89 Calm 30.18 1022 10 16 0.00 0.00
8:24 pm 20:24 Partly Cloudy 30 -1.1 29 -1.7 96 96 SSE 3 6 30.19 1022 9 14 0.00 0.00
8:52 pm 20:52 Mostly Clear 32 0 29 -1.7 88 88 SSW 3 6 30.17 1022 8 13 0.00 0.00
9:52 pm 21:52 Mostly Clear with Mist and Fog 29 -1.7 27 -2.8 92 92 Calm 30.17 1022 5 8 0.00 0.00
10:52 pm 22:52 Mostly Clear 30 -1.1 28 -2.2 92 92 SSW 3 6 30.16 1021 9 14 0.00 0.00
11:07 pm 23:07 Cloudy 31 -0.6 29 -1.7 92 92 SSW 5 7 30.19 1022 8 13 0.00 0.00
11:42 pm 23:42 Cloudy with Mist and Fog 31 -0.6 30 -1.1 96 96 SSW 3 6 30.18 1022 1 2 0.00 0.00
11:52 pm 23:52 Cloudy with Mist and Fog 31 -0.6 31 -0.6 100 100 SSW 6 9 30.15 1021 1 2 0.00 0.00

Powered by AerisWeather